Погода в Акчакале

Турция     36°42′49″N   38°56′54″E
темп.,
°C
ветер,
м/с
пор.,
м/с
влажн.,
%
обл.,
%
осадки,
мм/ч
давл.,
гПа
погр.,
м
8 мая, сб
сб800:00+23сз23313 0.0 101113
03:00+20с44340 0.0 101246
06:00+20ссз33341 0.0 101338
09:00+27ссз23245 0.0 1013497
12:00+31з12161 0.0 10121926
15:00+34з451249 0.0 10102855
18:00+32зсз3515100 0.0 1009258
21:00+27з4723100 0.0 1010110
9 мая, вс
вс900:00+24зсз2232100 0.0 101020
03:00+22юз124027 0.0 100911
06:00+21юз334060 0.0 100924
09:00+28зюз572396 0.0 1009674
12:00+33зюз6817100 0.0 10081410
15:00+35зюз10121450 0.0 10062661
18:00+33з912184 0.0 10041400
21:00+27зсз712290 0.0 1006323
10 мая, пн
пн1000:00+20с814340 0.0 1009453
03:00+17с713255 0.0 1010442
06:00+14с613290 0.0 1012431
09:00+20с79190 0.0 1012659
12:00+26с55120 0.0 10101253
15:00+28ссз45100 0.0 10091819
18:00+27ссз55110 0.0 10081018
21:00+21ссв46180 0.0 100968
11 мая, вт
вт1100:00+18с46210 0.0 100986
03:00+16с47220 0.0 1009113
06:00+15с46270 0.0 1010100
09:00+22с55200 0.0 1010589
12:00+27ссз33140 0.0 10091471
15:00+30зсз13120 0.0 10082493
18:00+30сз12120 0.0 10062635
21:00+23ссв47160 0.0 100895
12 мая, ср
ср1200:00+21св35180 0.0 100855
03:00+19ссв33240 0.0 100816
06:00+19ссв22270 0.0 100918
09:00+26ссв33160 0.0 1009566
12:00+32ссз12115 0.0 10082228
15:00+33зсз33110 0.0 10063338
18:00+32зсз33110 0.0 10062407
21:00+26ссз33150 0.0 100731